Dewpoint
73 72 71 70 64 52 46 48 50 53 53 55 54 55 56 58 56 55 69 68 69 69 70 71 74 74 74 74 74 74 74 73 74 75 75 75 75 76 75 75 75 74 74 74 74 73 73 73 73
68 68 67 63 55 48 46 49 50 53 53 56 55 56 55 56 62 65 66 68 67 66 67 68 75 74 74 74 75 75 74 74 74 74 75 75 75 75 74 75 75 74 74 73 73 73 73 73 73
68 67 61 58 51 40 43 49 51 52 53 53 53 55 56 57 61 64 66 66 67 68 68 71 74 75 75 74 75 74 74 74 74 74 75 75 75 75 74 74 74 74 73 73 73 73 73 72 72
65 63 60 44 37 42 46 48 51 51 52 53 55 55 57 59 62 63 66 67 68 68 69 72 74 75 75 75 75 75 75 75 74 74 75 75 74 74 74 74 73 73 73 73 72 72 72 72 71
62 58 44 33 38 43 47 48 50 51 51 52 55 56 57 61 62 64 65 66 67 68 69 71 75 75 75 76 76 76 75 75 74 74 74 74 74 73 74 73 72 72 72 73 73 73 72 72 72
55 49 30 29 34 41 47 48 49 49 51 52 55 57 60 62 62 64 65 64 66 65 68 71 76 76 75 76 75 75 74 74 74 74 74 74 74 73 72 72 71 72 72 73 73 72 71 71 71
53 44 30 31 35 37 43 46 46 49 50 52 56 56 60 61 62 63 64 65 64 64 67 70 72 75 75 75 74 74 74 74 74 74 74 74 73 73 71 71 72 72 73 72 72 72 70 70 71
50 44 33 33 32 35 42 44 46 47 49 52 56 56 58 61 62 61 63 64 64 66 67 70 71 71 74 72 74 74 74 74 74 74 74 74 74 73 73 72 73 71 71 72 72 72 71 70 71
48 44 38 31 35 38 42 42 47 50 51 51 52 56 59 61 60 62 62 63 68 67 68 67 69 69 70 70 71 75 75 74 74 75 74 73 70 71 73 73 71 70 73 73 73 73 72 72 72
46 45 37 36 37 40 40 41 46 47 50 51 51 56 60 61 60 59 59 63 63 66 67 67 68 67 68 66 73 72 71 70 70 70 73 69 69 70 69 71 72 73 74 73 73 73 73 74 70
42 47 40 36 38 41 41 40 45 46 46 50 52 56 59 60 60 59 59 60 62 67 66 65 67 68 67 71 68 68 68 67 68 72 72 70 69 71 68 71 73 74 75 72 72 72 71 72 68
41 42 35 38 37 40 40 39 40 44 44 49 53 57 58 58 58 58 59 61 63 65 64 64 67 70 70 68 66 65 65 65 65 68 73 72 69 69 71 73 72 73 73 70 74 72 72 71 72
40 38 35 36 38 39 42 40 39 42 45 48 53 57 57 57 57 58 59 61 63 64 64 65 68 71 71 72 67 66 65 65 65 66 69 68 67 74 74 75 69 71 68 73 72 72 73 69 70
38 37 35 36 38 40 40 42 42 46 48 49 54 55 55 55 56 57 58 60 63 65 65 66 68 71 72 73 74 70 68 67 66 65 66 72 70 75 71 70 68 73 68 71 72 71 71 70 71
35 35 37 36 37 39 42 42 41 48 49 50 53 54 54 55 56 57 58 60 62 64 65 66 69 69 73 73 72 71 68 66 65 65 70 70 73 73 74 72 69 70 75 73 72 73 75 72 69
32 34 33 36 36 42 42 41 46 51 49 48 51 53 54 55 55 58 59 61 62 63 66 67 66 68 71 74 72 70 68 67 69 69 73 75 73 74 73 70 69 71 73 74 73 71 73 62 61
30 30 31 35 37 43 42 52 45 50 49 48 50 52 53 55 56 58 59 61 62 65 66 67 68 67 71 74 72 72 74 69 70 73 68 73 73 74 73 71 74 75 71 69 73 71 68 62 57
31 30 30 38 35 42 41 44 46 49 49 47 49 50 53 53 55 58 60 60 62 64 67 69 68 72 74 72 74 71 73 73 71 68 70 75 73 72 76 73 71 71 68 72 72 69 65 60 60
31 31 31 34 33 40 41 41 44 49 49 48 47 50 50 52 56 58 60 59 62 64 67 69 72 76 73 70 69 69 68 73 71 71 74 74 73 74 75 73 73 70 70 73 69 65 65 58 62
28 30 30 29 36 38 40 40 41 47 50 49 48 49 49 50 53 58 60 60 62 65 68 72 74 77 75 71 73 70 70 66 69 69 71 74 72 75 72 74 72 74 71 70 67 67 60 55 62
26 29 30 27 39 39 38 39 40 42 47 50 49 49 50 50 51 56 59 61 62 65 68 73 76 77 76 76 74 73 72 70 67 65 65 67 71 70 74 73 72 73 68 65 67 64 64 57 58
24 28 28 27 38 35 37 33 40 40 42 46 49 50 47 50 51 53 57 60 61 64 67 73 76 78 77 78 74 76 70 66 64 65 64 66 68 68 72 71 70 72 67 69 64 62 64 64 57
25 26 29 29 33 37 33 32 35 38 39 40 46 50 49 49 50 51 53 59 61 62 65 70 76 78 78 78 77 72 73 66 65 64 74 72 74 70 67 70 73 71 65 69 66 66 66 62 60
23 26 29 29 28 31 35 36 33 39 40 40 43 47 50 48 50 52 53 56 59 61 63 67 75 78 79 78 78 79 77 73 67 68 68 66 64 67 70 69 72 74 68 66 66 67 65 66 65
20 23 24 25 25 26 36 35 43 35 38 39 38 41 47 50 48 52 53 53 59 62 64 66 74 78 79 78 78 78 78 78 77 73 68 70 61 62 73 73 74 71 72 67 68 68 66 65 64
19 21 23 28 23 23 29 32 32 36 36 38 37 36 42 49 50 50 53 53 57 61 66 68 72 77 78 78 78 79 79 73 72 74 68 65 61 62 73 72 72 70 71 70 69 64 64 66 64
17 20 20 22 24 23 25 30 32 36 34 36 37 35 35 44 48 50 50 52 53 60 66 68 72 76 78 77 79 79 79 78 72 75 76 69 72 63 70 71 70 70 69 68 69 65 65 66 66
11 16 19 22 28 28 24 28 30 36 35 35 35 33 32 36 44 48 50 53 56 56 62 68 71 76 77 77 78 77 77 78 78 77 77 75 73 70 71 70 70 70 70 70 71 68 68 67 63
8 11 18 19 23 24 24 26 31 36 36 34 33 33 31 31 38 45 50 53 57 57 60 65 69 73 76 76 76 77 76 76 77 75 76 76 76 73 72 72 71 71 69 70 71 70 67 66 67
12 13 15 25 30 25 25 23 27 29 32 32 32 31 30 32 33 39 46 51 54 60 58 61 65 68 72 74 76 76 77 76 76 76 76 76 75 74 72 72 71 69 69 69 69 68 64 65 65
Lifted_Index
-4 -4 -4 -4 -3 -2 -1 -2 -2 -2 -2 -1 -1 -1 -1 -1 -1 -1 -1 -1 -2 -2 -2 -2 -3 -3 -3 -4 -4 -4 -4 -4 -4 -4 -5 -6 -6 -6 -6 -6 -6 -6 -6 -6 -6 -6 -6 -5 -5
-4 -4 -4 -4 -3 -2 -1 -2 -2 -2 -2 -2 -2 -2 -1 -1 -1 -1 -1 -2 -2 -2 -2 -2 -3 -3 -4 -4 -4 -4 -4 -4 -4 -5 -5 -6 -6 -6 -6 -6 -6 -6 -6 -6 -6 -6 -6 -5 -5
-5 -4 -4 -4 -2 -1 -1 -2 -2 -2 -2 -2 -2 -2 -2 -2 -2 -2 -2 -2 -2 -2 -2 -2 -3 -4 -4 -4 -5 -5 -4 -4 -4 -5 -5 -6 -6 -6 -6 -6 -6 -6 -6 -6 -6 -6 -5 -5 -5
-5 -4 -4 -3 -2 -2 -2 -2 -2 -2 -2 -2 -2 -2 -2 -2 -2 -2 -2 -2 -2 -2 -2 -3 -3 -4 -4 -5 -5 -5 -5 -5 -5 -5 -6 -6 -6 -6 -6 -6 -6 -5 -5 -6 -6 -6 -6 -5 -5
-4 -4 -3 -2 -1 -1 -2 -2 -2 -2 -2 -2 -2 -2 -2 -2 -2 -2 -2 -2 -3 -3 -3 -3 -4 -4 -5 -5 -5 -6 -6 -6 -6 -6 -6 -6 -6 -6 -6 -6 -6 -6 -6 -6 -6 -6 -5 -5 -5
-4 -3 -2 -1 -0 -0 -1 -2 -2 -2 -2 -2 -2 -2 -3 -3 -3 -3 -3 -2 -3 -3 -3 -4 -4 -5 -5 -5 -5 -6 -6 -6 -6 -6 -7 -7 -7 -6 -6 -6 -6 -6 -6 -6 -6 -6 -5 -5 -5
-3 -2 -1 -0 0 1 0 -1 -1 -1 -1 -2 -2 -3 -3 -3 -3 -3 -3 -3 -3 -3 -3 -4 -4 -5 -5 -5 -5 -5 -6 -6 -6 -6 -7 -7 -7 -6 -6 -6 -6 -6 -6 -6 -6 -6 -5 -5 -5
-3 -2 -1 -1 -0 1 1 0 -1 -1 -1 -2 -2 -3 -3 -3 -3 -3 -3 -3 -4 -4 -4 -4 -4 -4 -4 -4 -5 -5 -6 -6 -6 -6 -6 -6 -6 -6 -6 -6 -6 -6 -6 -6 -6 -6 -5 -5 -5
-2 -1 -1 -1 -1 0 1 0 -0 -1 -1 -1 -2 -3 -3 -3 -3 -3 -3 -4 -4 -5 -5 -4 -4 -4 -4 -4 -4 -5 -5 -5 -5 -6 -6 -5 -5 -5 -5 -5 -5 -5 -6 -6 -6 -5 -5 -5 -5
-1 -1 -1 -1 -1 -1 0 1 -0 -1 -1 -1 -2 -3 -3 -3 -3 -3 -3 -4 -4 -5 -5 -5 -4 -4 -4 -4 -4 -4 -4 -4 -4 -5 -5 -5 -5 -5 -5 -5 -5 -5 -5 -5 -5 -5 -5 -5 -5
-1 -1 -1 -1 -2 -2 -0 1 0 -0 -0 -1 -2 -3 -3 -3 -3 -3 -3 -3 -4 -4 -4 -4 -4 -4 -4 -4 -4 -4 -4 -4 -4 -4 -4 -4 -4 -4 -5 -5 -5 -5 -5 -5 -5 -5 -5 -5 -5
-2 -1 -1 -1 -2 -2 -1 0 1 0 -0 -1 -2 -3 -3 -3 -3 -3 -3 -3 -4 -4 -4 -3 -3 -4 -4 -4 -4 -3 -3 -3 -3 -4 -4 -4 -4 -4 -5 -5 -5 -5 -5 -5 -5 -5 -5 -5 -5
-2 -1 -1 -1 -1 -2 -2 -0 1 0 -0 -1 -2 -3 -3 -2 -2 -3 -3 -3 -4 -4 -3 -3 -3 -4 -4 -4 -4 -3 -3 -3 -3 -3 -4 -4 -4 -4 -5 -5 -5 -4 -4 -5 -5 -5 -5 -5 -5
-2 -1 -1 -0 -1 -2 -2 -1 0 -0 -0 -1 -1 -2 -2 -2 -2 -2 -3 -3 -3 -4 -3 -4 -4 -4 -5 -5 -4 -4 -4 -3 -3 -3 -4 -4 -5 -5 -5 -5 -4 -4 -4 -5 -5 -5 -5 -5 -5
-1 -1 -1 -0 -1 -2 -1 -1 -0 -1 -1 -1 -1 -1 -2 -2 -2 -2 -2 -3 -3 -3 -3 -4 -4 -4 -5 -5 -5 -4 -4 -4 -3 -3 -4 -5 -5 -5 -5 -5 -5 -4 -5 -5 -5 -5 -5 -4 -4
-0 -0 -1 -1 -1 -1 -1 -1 -1 -1 -1 -1 -1 -1 -1 -1 -1 -2 -2 -2 -3 -3 -3 -3 -4 -4 -5 -5 -5 -5 -4 -4 -4 -4 -5 -5 -5 -5 -5 -5 -5 -5 -5 -5 -5 -4 -4 -2 -1
0 -0 -1 -1 -1 -1 -1 -1 -1 -1 -1 -1 -0 -1 -1 -1 -1 -2 -2 -2 -3 -3 -3 -3 -4 -4 -5 -5 -5 -5 -5 -5 -5 -5 -5 -5 -5 -5 -5 -5 -5 -5 -5 -5 -4 -4 -2 -0 1
-0 -0 -1 -1 -1 -1 -2 -2 -2 -1 -1 -0 -0 -0 -1 -1 -1 -2 -2 -2 -2 -3 -3 -3 -4 -4 -5 -5 -5 -5 -5 -5 -5 -5 -5 -5 -5 -5 -5 -5 -5 -4 -4 -4 -4 -2 -1 1 1
-0 -0 -1 -1 -1 -1 -2 -3 -2 -2 -1 -1 -0 -0 -0 -1 -1 -2 -2 -2 -2 -3 -3 -4 -4 -5 -5 -5 -5 -5 -5 -5 -5 -5 -5 -5 -5 -5 -5 -5 -4 -4 -4 -3 -3 -1 1 1 1
-0 -1 -1 -1 -1 -1 -2 -3 -3 -2 -2 -1 -1 -0 -0 -0 -1 -1 -2 -2 -2 -3 -4 -4 -5 -6 -6 -6 -5 -5 -5 -5 -4 -4 -4 -5 -5 -5 -5 -5 -4 -4 -3 -3 -2 -0 1 2 2
-0 -1 -1 -1 -1 -1 -2 -2 -2 -2 -2 -2 -1 -1 -1 -0 -1 -1 -2 -2 -3 -3 -4 -5 -6 -7 -7 -7 -6 -5 -5 -4 -4 -3 -3 -3 -4 -4 -5 -4 -4 -4 -3 -2 -1 0 1 2 2
-0 -0 -1 -1 -1 -1 -1 -1 -2 -2 -2 -1 -1 -1 -1 -1 -1 -1 -2 -2 -3 -3 -4 -5 -6 -7 -7 -7 -7 -6 -5 -4 -3 -3 -3 -3 -3 -3 -4 -4 -4 -3 -2 -1 0 1 1 2 2
0 -0 -1 -1 -1 -1 -1 -1 -1 -1 -1 -1 -2 -2 -1 -1 -1 -1 -2 -2 -3 -3 -4 -5 -7 -8 -8 -8 -7 -7 -6 -4 -3 -3 -3 -3 -3 -3 -3 -3 -3 -3 -2 -1 0 1 1 1 2
1 0 -1 -1 -1 -1 -1 -1 -1 -1 -1 -1 -2 -2 -2 -2 -1 -1 -2 -2 -3 -3 -4 -5 -7 -8 -9 -9 -8 -8 -7 -6 -4 -4 -4 -3 -2 -2 -3 -3 -3 -3 -2 -1 -0 0 1 1 1
1 0 -0 -1 -1 -1 -1 -1 -1 -1 -1 -1 -1 -2 -2 -2 -2 -2 -2 -2 -3 -3 -4 -5 -7 -9 -9 -9 -9 -9 -8 -7 -6 -5 -4 -3 -2 -2 -3 -4 -4 -4 -3 -2 -1 -1 -0 0 0
1 1 -0 -1 -1 -1 -1 -1 -0 -0 -1 -1 -1 -1 -2 -2 -3 -2 -2 -2 -3 -3 -4 -5 -7 -8 -10 -10 -10 -9 -9 -8 -7 -6 -5 -4 -2 -2 -3 -4 -4 -4 -3 -3 -2 -1 -1 -0 -0
1 1 -0 -1 -1 -1 -1 -1 -0 -0 -0 -0 -1 -1 -1 -2 -3 -3 -3 -2 -2 -3 -4 -5 -7 -8 -9 -10 -10 -10 -9 -8 -7 -7 -6 -5 -3 -2 -3 -4 -4 -4 -3 -3 -2 -2 -2 -1 -1
1 1 -0 -1 -1 -1 -1 -1 -1 -0 -0 -0 -0 -1 -1 -1 -2 -3 -3 -3 -3 -3 -4 -5 -6 -8 -9 -9 -10 -10 -9 -9 -8 -8 -7 -6 -5 -4 -3 -4 -4 -4 -3 -3 -2 -2 -2 -2 -2
1 1 -1 -1 -1 -1 -1 -1 -1 -1 -0 -0 -0 -0 -1 -1 -1 -2 -3 -3 -3 -3 -4 -5 -6 -7 -8 -9 -9 -9 -9 -9 -8 -8 -8 -7 -6 -5 -4 -4 -4 -4 -3 -2 -2 -2 -2 -2 -2
1 0 -1 -1 -1 -1 -1 -1 -1 -1 -0 -0 -0 -1 -1 -1 -1 -2 -3 -3 -3 -4 -4 -4 -5 -7 -8 -8 -9 -9 -9 -8 -8 -8 -8 -8 -7 -6 -5 -5 -4 -4 -3 -2 -2 -1 -1 -1 -1